This is the latest recevied weather packets stored in our database for station/object RK6MF-10. If no packets are shown the sender has not sent any weather packets the latest 10 day(s).
| Time | Temp. | Humidity | Pressure | Rain* | Wind** | Luminosity | Snow |
|---|---|---|---|---|---|---|---|
| 1787715305 | 17.22° C | 47% | 1014.3 hPa | - | - | - | - |
| 1787714405 | 17.22° C | 48% | 1014.4 hPa | - | - | - | - |
| 1787713505 | 17.22° C | 48% | 1014.4 hPa | - | - | - | - |
| 1787712605 | 17.22° C | 47% | 1014.3 hPa | - | - | - | - |
| 1787711705 | 17.22° C | 47% | 1014.1 hPa | - | - | - | - |
| 1787710804 | 17.22° C | 48% | 1014 hPa | - | - | - | - |
| 1787709904 | 17.22° C | 49% | 1014 hPa | - | - | - | - |
| 1787709004 | 17.22° C | 50% | 1014.1 hPa | - | - | - | - |
| 1787708104 | 16.67° C | 51% | 1014.2 hPa | - | - | - | - |
| 1787707206 | 17.22° C | 50% | 1014.1 hPa | - | - | - | - |
| 1787706306 | 17.22° C | 49% | 1013.9 hPa | - | - | - | - |
| 1787705406 | 17.78° C | 49% | 1014 hPa | - | - | - | - |
| 1787704506 | 17.78° C | 49% | 1013.9 hPa | - | - | - | - |
| 1787703606 | 17.78° C | 50% | 1013.7 hPa | - | - | - | - |
| 1787702706 | 18.33° C | 49% | 1013.9 hPa | - | - | - | - |
| 1787701806 | 18.33° C | 47% | 1013.9 hPa | - | - | - | - |
| 1787700906 | 18.33° C | 48% | 1014 hPa | - | - | - | - |
| 1787700005 | 18.33° C | 48% | 1013.9 hPa | - | - | - | - |
| 1787699105 | 18.89° C | 48% | 1013.9 hPa | - | - | - | - |
| 1787698205 | 18.89° C | 48% | 1013.9 hPa | - | - | - | - |
| 1787697305 | 18.89° C | 48% | 1013.8 hPa | - | - | - | - |
| 1787696405 | 19.44° C | 45% | 1013.9 hPa | - | - | - | - |
| 1787695505 | 19.44° C | 47% | 1014 hPa | - | - | - | - |
| 1787694605 | 19.44° C | 47% | 1014.1 hPa | - | - | - | - |
| 1787693705 | 19.44° C | 47% | 1014.2 hPa | - | - | - | - |
* Rain since midnight (hover to see other rain measurements)
** Current wind speed in m/s (hover to see current wind gust speed)